Litchfield, IL

1:54 PM CST on February 08, 2016 (GMT -0600)
Litchfield

Weather History for K3LF - February, 2013

Change the Weather History Date:

Saturday, February 9, 2013

  Actual Average (KSPI) Record (KSPI)
Temperature  
Mean Temperature 34 °F 29 °F  
Max Temperature 39 °F 38 °F 66 °F (1943)
Min Temperature 29 °F 21 °F -21 °F (1899)
Degree Days  
Heating Degree Days 31 36  
Month to date heating degree days 329  
Since 1 July heating degree days 3655  
Cooling Degree Days 0 0  
Month to date cooling degree days 0  
Year to date cooling degree days 0  
Moisture  
Dew Point 28 °F    
Average Humidity 79    
Maximum Humidity 83    
Minimum Humidity 70    
Precipitation  
Precipitation 0.00 in 0.06 in 1.34 in (1966)
Month to date precipitation 0.51  
Year to date precipitation 2.33  
Snow  
Snow 0.00 in 0.20 in 3.60 in (1942)
Month to date snowfall 1.9  
Since 1 July snowfall 14.5  
Snow Depth -    
Sea Level Pressure  
Sea Level Pressure 30.24 in    
Wind  
Wind Speed 9 mph (SE)    
Max Wind Speed 16 mph    
Max Gust Speed 17 mph    
Visibility 10 miles    
Events Rain    
T = Trace of Precipitation, MM = Missing Value Source: NWS Daily Summary

Daily Weather History Graph

Daily Weather History Graph

Search for Another Location

Airport or City:

Trip Planner

Search our weather history database for the weather conditions in past years. The results will help you decide how hot, cold, wet, or windy it might be!

Date:

Astronomy

Feb. 09, 2013 Rise Set
Actual Time 6:57 AM CST 5:29 PM CST
Civil Twilight 6:29 AM CST 5:56 PM CST
Nautical Twilight 5:57 AM CST 6:28 PM CST
Astronomical Twilight 5:26 AM CST 6:59 PM CST
Moon 6:08 AM CST (2/9) 5:11 PM CST (2/9)
Length of Visible Light 11h 27m
Length of Day
10h 32m
Waning Crescent, 0% of the Moon is Illuminated
Feb 9
Waning Crescent
Feb 10
New
Feb 17
First Quarter
Feb 25
Full
Mar 4
Last Quarter

Hourly Weather History & Observations

Time (CST) Temp. Windchill Dew Point Humidity Pressure Visibility Wind Dir Wind Speed Gust Speed Precip Events Conditions
12:15 AM 29.3 °F 23.2 °F 24.8 °F 83% 30.36 in 10.0 mi East 5.8 mph - N/A   Overcast
12:35 AM 29.7 °F 22.0 °F 24.8 °F 82% 30.35 in 10.0 mi East 8.1 mph - N/A   Overcast
12:55 AM 29.8 °F 23.9 °F 25.3 °F 83% 30.35 in 10.0 mi ESE 5.8 mph - N/A   Overcast
1:15 AM 30.0 °F 23.2 °F 25.3 °F 83% 30.35 in 10.0 mi East 6.9 mph - N/A   Overcast
1:35 AM 29.7 °F 22.8 °F 24.8 °F 82% 30.35 in 10.0 mi ESE 6.9 mph - N/A   Overcast
1:55 AM 29.7 °F 23.7 °F 24.8 °F 82% 30.35 in 10.0 mi SE 5.8 mph - N/A   Overcast
2:15 AM 29.3 °F 21.5 °F 24.6 °F 83% 30.35 in 10.0 mi ESE 8.1 mph - N/A   Overcast
2:35 AM 29.3 °F 21.5 °F 24.6 °F 83% 30.36 in 10.0 mi ESE 8.1 mph - N/A   Overcast
2:55 AM 29.3 °F 23.2 °F 24.4 °F 82% 30.36 in 10.0 mi ESE 5.8 mph - N/A   Overcast
3:15 AM 29.3 °F 23.2 °F 24.8 °F 83% 30.36 in 10.0 mi SSE 5.8 mph - N/A   Overcast
3:35 AM 29.3 °F 20.8 °F 24.4 °F 82% 30.36 in 10.0 mi SSE 9.2 mph - N/A   Overcast
3:55 AM 29.1 °F 22.1 °F 23.9 °F 81% 30.36 in 10.0 mi ESE 6.9 mph - N/A   Overcast
4:15 AM 29.3 °F 24.3 °F 24.3 °F 81% 30.36 in 10.0 mi SE 4.6 mph - N/A   Overcast
4:35 AM 29.1 °F 20.6 °F 24.1 °F 81% 30.35 in 10.0 mi ESE 9.2 mph - N/A   Overcast
4:55 AM 29.1 °F 21.3 °F 23.7 °F 80% 30.35 in 10.0 mi SSE 8.1 mph - N/A   Overcast
5:15 AM 29.1 °F 20.6 °F 23.9 °F 81% 30.34 in 10.0 mi SE 9.2 mph - N/A   Overcast
5:35 AM 29.1 °F 20.0 °F 23.9 °F 81% 30.33 in 10.0 mi ESE 10.4 mph - N/A   Overcast
5:55 AM 29.1 °F 19.4 °F 23.7 °F 80% 30.32 in 10.0 mi SE 11.5 mph 17.3 mph N/A   Overcast
6:15 AM 29.1 °F 19.4 °F 23.9 °F 81% 30.32 in 10.0 mi SE 11.5 mph - N/A   Overcast
6:35 AM 29.1 °F 20.0 °F 23.9 °F 81% 30.33 in 10.0 mi ESE 10.4 mph - N/A   Overcast
6:55 AM 29.1 °F 20.0 °F 24.3 °F 82% 30.33 in 10.0 mi SE 10.4 mph 16.1 mph N/A   Overcast
7:15 AM 29.3 °F 21.5 °F 24.6 °F 83% 30.33 in 10.0 mi SE 8.1 mph - N/A   Overcast
7:35 AM 29.3 °F 20.2 °F 24.4 °F 82% 30.33 in 10.0 mi SSE 10.4 mph - N/A   Overcast
7:55 AM 29.3 °F 20.8 °F 24.8 °F 83% 30.34 in 10.0 mi SE 9.2 mph - N/A   Overcast
8:15 AM 29.7 °F 20.7 °F 24.8 °F 82% 30.35 in 10.0 mi SSE 10.4 mph - N/A   Overcast
8:35 AM 29.7 °F 21.3 °F 24.8 °F 82% 30.35 in 10.0 mi SSE 9.2 mph - N/A   Overcast
8:55 AM 29.8 °F 20.9 °F 25.0 °F 82% 30.34 in 10.0 mi SE 10.4 mph - N/A   Overcast
9:15 AM 30.0 °F 20.5 °F 25.2 °F 82% 30.34 in 10.0 mi SE 11.5 mph - N/A   Overcast
9:35 AM 30.2 °F 21.3 °F 25.3 °F 82% 30.34 in 10.0 mi SE 10.4 mph - N/A   Overcast
9:55 AM 30.6 °F 21.8 °F 25.5 °F 82% 30.33 in 10.0 mi SE 10.4 mph - N/A   Overcast
10:15 AM 30.6 °F 20.2 °F 25.5 °F 82% 30.33 in 10.0 mi SSE 13.8 mph - N/A   Overcast
10:35 AM 31.1 °F 21.9 °F 25.7 °F 80% 30.33 in 10.0 mi SSE 11.5 mph - N/A   Overcast
10:55 AM 31.1 °F 21.4 °F 25.7 °F 80% 30.33 in 10.0 mi SE 12.7 mph - N/A   Overcast
11:15 AM 31.5 °F 22.3 °F 25.5 °F 79% 30.32 in 10.0 mi SE 11.5 mph 16.1 mph N/A   Overcast
11:35 AM 32.0 °F 23.6 °F 26.2 °F 79% 30.31 in 10.0 mi SSE 10.4 mph - N/A   Overcast
11:55 AM 32.7 °F 23.9 °F 27.3 °F 81% 30.29 in 10.0 mi SSE 11.5 mph - N/A   Mostly Cloudy
12:15 PM 33.3 °F 24.1 °F 27.3 °F 79% 30.29 in 10.0 mi SSE 12.7 mph - N/A   Scattered Clouds
12:35 PM 34.2 °F 25.2 °F 27.9 °F 78% 30.28 in 10.0 mi South 12.7 mph - N/A   Scattered Clouds
12:55 PM 34.7 °F 26.4 °F 28.0 °F 77% 30.27 in 10.0 mi SSE 11.5 mph - N/A   Scattered Clouds
1:15 PM 35.1 °F 26.4 °F 28.6 °F 77% 30.25 in 10.0 mi SSE 12.7 mph - N/A   Clear
1:35 PM 36.3 °F 27.5 °F 29.1 °F 75% 30.23 in 10.0 mi SSE 13.8 mph - N/A   Clear
1:55 PM 37.8 °F 29.8 °F 29.8 °F 73% 30.22 in 10.0 mi SE 12.7 mph - N/A   Clear
2:15 PM 38.1 °F 29.8 °F 29.5 °F 71% 30.21 in 10.0 mi SSE 13.8 mph - N/A   Clear
2:35 PM 37.8 °F 30.2 °F 29.5 °F 72% 30.20 in 10.0 mi SSE 11.5 mph - N/A   Clear
2:55 PM 38.1 °F 31.2 °F 29.5 °F 71% 30.19 in 10.0 mi SSE 10.4 mph 16.1 mph N/A   Clear
3:15 PM 39.0 °F 31.8 °F 30.0 °F 70% 30.18 in 10.0 mi SE 11.5 mph 16.1 mph N/A   Clear
3:35 PM 38.5 °F 29.9 °F 29.5 °F 70% 30.17 in 10.0 mi SE 15.0 mph - N/A   Clear
3:55 PM 38.7 °F 30.9 °F 30.0 °F 71% 30.16 in 10.0 mi SE 12.7 mph - N/A   Clear
4:15 PM 38.7 °F 31.4 °F 30.0 °F 71% 30.15 in 10.0 mi SE 11.5 mph - N/A   Clear
4:35 PM 38.7 °F 31.8 °F 30.4 °F 72% 30.14 in 10.0 mi SE 10.4 mph - N/A   Clear
4:55 PM 38.3 °F 32.5 °F 30.9 °F 75% 30.13 in 10.0 mi SE 8.1 mph - N/A   Clear
5:15 PM 37.9 °F 32.1 °F 31.1 °F 76% 30.12 in 10.0 mi SE 8.1 mph - N/A   Clear
5:35 PM 37.9 °F 31.5 °F 31.1 °F 76% 30.11 in 10.0 mi ESE 9.2 mph - N/A   Clear
5:55 PM 37.4 °F 30.3 °F 30.7 °F 77% 30.11 in 10.0 mi SE 10.4 mph - N/A   Clear
6:15 PM 37.4 °F 30.8 °F 30.7 °F 77% 30.11 in 10.0 mi SE 9.2 mph - N/A   Clear
6:35 PM 36.9 °F 30.1 °F 30.7 °F 79% 30.11 in 10.0 mi ESE 9.2 mph - N/A   Clear
6:55 PM 36.9 °F 30.1 °F 30.7 °F 79% 30.11 in 10.0 mi SE 9.2 mph - N/A   Clear
7:15 PM 36.5 °F 29.7 °F 30.7 °F 80% 30.11 in 10.0 mi SE 9.2 mph - N/A   Clear
7:35 PM 36.1 °F 29.3 °F 30.9 °F 81% 30.12 in 10.0 mi SE 9.2 mph - N/A   Clear
7:55 PM 36.1 °F 28.7 °F 31.1 °F 82% 30.11 in 10.0 mi SE 10.4 mph - N/A   Clear
8:15 PM 36.5 °F 29.2 °F 31.3 °F 81% 30.11 in 10.0 mi SE 10.4 mph - N/A   Clear
8:35 PM 36.5 °F 28.2 °F 31.5 °F 82% 30.09 in 10.0 mi SE 12.7 mph - N/A   Clear
8:55 PM 36.7 °F 28.0 °F 31.6 °F 82% 30.08 in 10.0 mi SE 13.8 mph - N/A   Clear
9:15 PM 37.2 °F 27.9 °F 31.6 °F 80% 30.08 in 10.0 mi SE 16.1 mph - N/A   Clear
9:35 PM 37.6 °F 29.1 °F 31.6 °F 79% 30.08 in 10.0 mi SE 13.8 mph - N/A   Mostly Cloudy
9:55 PM 37.6 °F 29.6 °F 31.8 °F 80% 30.07 in 10.0 mi SE 12.7 mph - N/A   Light Drizzle
10:15 PM 37.8 °F 29.4 °F 31.8 °F 79% 30.06 in 10.0 mi SE 13.8 mph - N/A Rain Light Rain
10:35 PM 37.6 °F 29.6 °F 32.0 °F 80% 30.05 in 10.0 mi SE 12.7 mph - N/A Rain Light Rain
10:55 PM 37.6 °F 29.6 °F 32.2 °F 81% 30.05 in 10.0 mi SE 12.7 mph - N/A Rain Light Rain
11:15 PM 37.8 °F 30.2 °F 32.2 °F 80% 30.05 in 10.0 mi SE 11.5 mph - N/A   Overcast
11:35 PM 37.9 °F 30.5 °F 32.4 °F 80% 30.04 in 10.0 mi SE 11.5 mph - N/A   Overcast
11:55 PM 37.6 °F 29.1 °F 32.9 °F 83% 30.04 in 10.0 mi SSE 13.8 mph - N/A Rain Light Rain